Total_Precipitation_Accumulation
0.04 0.08 0.14 0.17 0.17 0.15 0.12 0.10 0.16 0.18 0.36 0.39 0.51 0.65 0.78 0.79 0.71 0.65 0.72 0.73 0.71 0.80 1.00 1.15 1.30 1.33 1.28 1.28 1.35 1.50 1.61 1.67 1.83 1.97 1.99 1.88 1.85 1.92 1.98 2.02 1.96 2.11 2.12 2.13
0.04 0.07 0.12 0.14 0.16 0.12 0.09 0.09 0.12 0.16 0.25 0.32 0.48 0.56 0.64 0.63 0.61 0.70 0.76 0.74 0.71 0.82 1.03 1.08 1.11 1.18 1.19 1.22 1.29 1.36 1.45 1.60 1.81 2.01 2.10 2.08 2.12 2.26 2.29 2.24 2.36 2.49 2.45 2.42
0.06 0.08 0.11 0.19 0.16 0.12 0.12 0.11 0.14 0.22 0.27 0.31 0.42 0.56 0.69 0.73 0.77 0.80 0.76 0.72 0.76 0.78 0.88 1.08 1.02 1.02 1.14 1.21 1.32 1.45 1.69 1.88 1.98 2.13 2.26 2.28 2.25 2.29 2.33 2.39 2.42 2.49 2.49 2.51
0.13 0.15 0.23 0.22 0.17 0.17 0.17 0.19 0.24 0.29 0.35 0.42 0.49 0.60 0.73 0.78 0.76 0.85 0.89 0.96 1.03 1.11 1.10 1.16 1.13 1.12 1.20 1.27 1.41 1.49 1.59 1.77 1.90 2.11 2.25 2.37 2.49 2.51 2.60 2.71 2.74 2.73 2.66 2.63
0.22 0.23 0.25 0.27 0.26 0.27 0.30 0.38 0.41 0.51 0.60 0.61 0.61 0.63 0.75 0.88 0.94 1.02 0.99 1.05 1.18 1.23 1.24 1.22 1.29 1.40 1.54 1.55 1.67 1.80 1.86 2.03 2.15 2.26 2.43 2.52 2.59 2.74 2.86 2.97 2.95 2.95 2.90 2.86
0.33 0.39 0.42 0.42 0.41 0.35 0.42 0.77 0.70 0.73 0.83 0.84 0.89 1.11 1.16 1.15 1.14 1.12 1.11 1.16 1.28 1.25 1.23 1.41 1.48 1.54 1.68 1.85 1.95 2.08 2.20 2.36 2.49 2.63 2.71 2.71 2.74 2.85 2.92 2.98 2.98 2.97 2.87 2.89
0.46 0.47 0.48 0.46 0.46 0.49 0.86 1.24 1.19 1.15 1.16 1.11 1.23 1.30 1.17 1.08 1.20 1.22 1.29 1.35 1.33 1.34 1.39 1.49 1.55 1.63 1.81 2.02 2.15 2.22 2.32 2.42 2.57 2.71 2.93 3.10 3.17 3.01 2.84 2.84 2.91 2.99 2.95 2.99
0.70 0.84 0.87 0.59 0.65 0.99 1.26 1.21 1.43 1.34 1.19 1.22 1.23 1.17 1.10 1.11 1.27 1.41 1.47 1.48 1.47 1.47 1.48 1.51 1.66 1.80 1.91 2.09 2.17 2.23 2.29 2.46 2.59 2.68 2.70 2.78 3.05 3.11 3.04 2.95 2.87 2.88 2.94 2.86
1.01 1.12 1.01 0.85 0.90 1.11 1.13 1.17 1.32 1.30 1.15 1.14 1.15 1.09 1.08 1.12 1.22 1.35 1.41 1.45 1.46 1.46 1.51 1.56 1.66 1.82 2.00 2.05 2.12 2.16 2.29 2.45 2.64 2.73 2.80 2.79 2.81 2.88 2.88 2.82 2.68 2.52 2.55 2.57
1.32 1.32 1.20 1.05 0.94 1.01 1.07 1.11 1.14 1.26 1.29 1.22 1.19 1.12 1.16 1.17 1.19 1.35 1.46 1.49 1.51 1.48 1.50 1.63 1.76 1.92 1.98 1.99 2.09 2.28 2.37 2.43 2.48 2.54 2.58 2.65 2.80 2.75 2.71 2.70 2.64 2.47 2.45 2.47
1.84 1.85 1.67 1.51 1.32 1.24 1.22 1.21 1.23 1.36 1.44 1.48 1.46 1.39 1.39 1.31 1.29 1.40 1.48 1.43 1.49 1.58 1.62 1.69 1.73 1.87 2.00 2.05 2.07 2.17 2.18 2.13 2.19 2.31 2.38 2.40 2.56 2.64 2.52 2.43 2.46 2.37 2.42 2.59
2.22 2.02 2.01 1.89 1.56 1.41 1.44 1.53 1.49 1.49 1.54 1.50 1.46 1.47 1.51 1.47 1.39 1.33 1.30 1.40 1.52 1.59 1.68 1.71 1.73 1.81 1.86 1.92 2.02 2.13 2.19 2.17 2.17 2.22 2.29 2.33 2.32 2.38 2.41 2.18 2.13 2.00 2.04 2.13
1.90 1.88 1.92 1.82 1.66 1.56 1.60 1.58 1.63 1.68 1.63 1.54 1.46 1.45 1.46 1.48 1.46 1.40 1.38 1.39 1.50 1.54 1.58 1.64 1.65 1.69 1.71 1.78 1.99 2.19 2.28 2.35 2.30 2.14 2.08 2.08 2.06 2.05 2.06 1.96 1.72 1.60 1.57 1.56
1.91 1.93 2.01 1.90 1.86 1.71 1.69 1.58 1.52 1.48 1.41 1.40 1.44 1.44 1.40 1.37 1.48 1.54 1.55 1.56 1.63 1.65 1.56 1.50 1.50 1.55 1.60 1.64 1.75 1.90 1.96 2.04 2.01 1.90 1.83 1.77 1.73 1.70 1.65 1.70 1.65 1.50 1.42 1.38
1.75 1.74 1.85 1.78 1.74 1.74 1.74 1.68 1.58 1.48 1.37 1.41 1.46 1.45 1.46 1.51 1.61 1.72 1.77 1.82 1.80 1.71 1.61 1.49 1.44 1.48 1.53 1.59 1.64 1.68 1.77 1.79 1.75 1.75 1.79 1.81 1.87 1.85 1.73 1.69 1.76 1.73 1.60 1.40
1.57 1.63 1.62 1.70 1.84 1.74 1.66 1.64 1.65 1.61 1.47 1.45 1.48 1.45 1.42 1.49 1.59 1.63 1.69 1.84 2.00 1.96 1.80 1.69 1.57 1.49 1.45 1.57 1.67 1.67 1.68 1.82 1.78 1.67 1.69 1.84 1.96 1.91 1.90 1.96 1.96 2.03 2.00 1.69
1.66 1.70 1.63 1.67 1.79 1.81 1.75 1.68 1.69 1.66 1.61 1.60 1.56 1.43 1.42 1.51 1.60 1.64 1.57 1.57 1.69 1.76 1.75 1.70 1.59 1.46 1.45 1.52 1.57 1.62 1.60 1.64 1.68 1.61 1.63 1.74 1.82 1.87 1.86 1.90 2.01 2.05 2.02 1.81
1.52 1.43 1.42 1.48 1.54 1.62 1.68 1.71 1.73 1.64 1.58 1.54 1.52 1.48 1.49 1.56 1.70 1.75 1.66 1.56 1.48 1.46 1.53 1.53 1.45 1.39 1.42 1.45 1.50 1.59 1.58 1.56 1.58 1.58 1.62 1.65 1.68 1.77 1.87 1.93 1.99 2.07 1.96 1.83
1.49 1.40 1.35 1.35 1.32 1.37 1.48 1.59 1.62 1.57 1.47 1.43 1.45 1.46 1.43 1.42 1.53 1.64 1.63 1.71 1.72 1.62 1.51 1.40 1.35 1.27 1.34 1.39 1.40 1.42 1.43 1.47 1.55 1.56 1.56 1.56 1.54 1.54 1.58 1.67 1.79 1.86 1.75 1.73
1.63 1.56 1.41 1.34 1.32 1.28 1.34 1.37 1.43 1.48 1.40 1.33 1.34 1.36 1.35 1.36 1.46 1.66 1.76 1.84 1.91 1.80 1.65 1.49 1.22 1.13 1.19 1.25 1.22 1.13 1.13 1.16 1.18 1.24 1.28 1.34 1.40 1.41 1.38 1.40 1.53 1.60 1.53 1.55
1.74 1.65 1.53 1.44 1.44 1.37 1.33 1.27 1.29 1.38 1.36 1.39 1.48 1.49 1.43 1.37 1.40 1.63 1.95 2.05 1.91 1.74 1.61 1.57 1.26 1.05 0.97 1.05 1.16 1.13 1.17 1.15 1.12 1.18 1.23 1.26 1.29 1.30 1.32 1.38 1.43 1.43 1.43 1.44
1.76 1.69 1.59 1.48 1.42 1.42 1.39 1.30 1.27 1.30 1.35 1.41 1.39 1.36 1.37 1.34 1.35 1.53 1.71 1.92 1.81 1.67 1.39 1.31 1.19 0.99 0.94 0.92 0.93 1.04 1.14 1.17 1.16 1.18 1.22 1.25 1.27 1.29 1.31 1.29 1.30 1.28 1.29 1.33
1.78 1.66 1.56 1.44 1.41 1.39 1.33 1.30 1.26 1.27 1.30 1.30 1.26 1.31 1.38 1.39 1.36 1.52 1.65 1.48 1.35 1.36 1.23 1.19 1.12 0.98 0.87 0.83 0.86 0.91 0.98 1.05 1.07 1.08 1.09 1.11 1.14 1.17 1.20 1.22 1.25 1.20 1.24 1.27
1.67 1.70 1.68 1.60 1.44 1.35 1.34 1.31 1.27 1.28 1.23 1.22 1.24 1.27 1.30 1.33 1.30 1.25 1.29 1.29 1.27 1.23 1.12 1.13 1.03 0.88 0.78 0.73 0.80 0.88 0.94 0.99 1.00 1.00 1.00 1.04 1.09 1.12 1.19 1.24 1.27 1.23 1.21 1.18
1.58 1.57 1.57 1.58 1.51 1.41 1.34 1.27 1.32 1.38 1.31 1.24 1.19 1.19 1.19 1.20 1.20 1.19 1.17 1.17 1.21 1.13 1.03 1.05 1.00 0.96 0.87 0.86 0.90 0.95 0.98 1.02 1.04 1.03 1.05 1.09 1.12 1.16 1.20 1.24 1.23 1.19 1.17 1.16
1.49 1.46 1.46 1.44 1.39 1.38 1.34 1.32 1.40 1.43 1.37 1.30 1.25 1.17 1.11 1.08 1.11 1.18 1.26 1.22 1.10 1.04 0.95 0.94 0.94 0.97 0.95 1.00 1.06 1.05 1.02 1.03 1.02 0.99 1.04 1.14 1.19 1.21 1.19 1.14 1.09 1.09 1.08 1.05
1.39 1.40 1.43 1.38 1.34 1.31 1.31 1.29 1.36 1.44 1.39 1.31 1.30 1.26 1.21 1.26 1.29 1.30 1.29 1.26 1.16 1.05 0.97 0.93 0.90 0.86 0.90 0.95 0.99 1.02 1.02 1.02 1.02 1.04 1.07 1.11 1.13 1.12 1.07 1.04 1.03 1.02 1.00 1.00